Simultaneous Nadir Overpasses (SNOs) Predictions

Prediction of SNOs between AQUA and NOAA-19 Satellite Orbit:

Table of predicted SNOs for the next 14.0 days since TLE Epoch: 2/10/2012
Index Date (AQUA) Time (AQUA) AQUA Lat,Lon Date (NOAA-19) Time (NOAA-19) NOAA-19 Lat,Lon Distance(km) Time Diff (sec)
1 02/11/2012 20:55:45 -46.00,-101.55 02/11/2012 20:54:32 -45.99,-101.43 9.39 73
2 02/11/2012 21:42:52 54.08, 69.55 02/11/2012 21:43:05 54.08, 69.55 0.18 13
3 02/14/2012 01:40:00 -46.27,-172.53 02/14/2012 01:39:16 -46.27,-172.52 0.49 44
4 02/14/2012 02:26:09 57.75, 0.46 02/14/2012 02:26:49 57.75, 0.48 1.56 40
5 02/16/2012 06:23:14 -50.14, 117.93 02/16/2012 06:22:57 -50.14, 117.93 0.66 17
6 02/16/2012 07:09:50 59.99, -69.22 02/16/2012 07:10:58 59.99, -69.21 0.42 68
7 02/18/2012 11:06:32 -53.74, 48.50 02/18/2012 11:06:42 -53.74, 48.49 0.74 10
8 02/20/2012 15:03:32 46.03, 166.52 02/20/2012 15:02:36 46.03, 166.56 3.25 56
9 02/20/2012 15:49:53 -57.13, -20.78 02/20/2012 15:50:30 -57.13, -20.78 0.17 37
10 02/22/2012 19:47:10 48.45, 96.38 02/22/2012 19:46:42 48.44, 96.36 1.29 28




NCC Satellite Simultaneous Nadir Overpasses (SNOs) Prediction Service
